Regional Weather Roundup
Issued by NWS Sioux Falls, SD

Home | Current Version | Previous Version | Graphics & Text | Print | Product List | Glossary On
Versions: 1 2 3 4 5 6 7 8 9 10 11 12 13 14 15 16 17 18 19 20 21 22 23 24 25 26 27 28 29 30 31 32 33 34 35 36 37 38 39 40 41 42 43 44 45 46 47 48 49 50
000
ASUS43 KFSD 270810
RWRFSD

WEATHER ROUNDUP FOR SE SOUTH DAKOTA/SW MINNESOTA/NW IOWA
NATIONAL WEATHER SERVICE SIOUX FALLS SD
300 AM CDT TUE JUN 27 2017

NOTE: "FAIR" INDICATES FEW OR NO CLOUDS BELOW 12,000 FEET WITH NO
SIGNIFICANT WEATHER AND OR OBSTRUCTIONS TO VISIBILITY.


SDZ038>040-050-052>070-270900-
SOUTHEAST SOUTH DAKOTA

CITY           SKY/WX    TMP DP  RH WIND       PRES   REMARKS
BROOKINGS      CLEAR     49  42  77 SE7       30.11F
CHAMBERLAIN    CLEAR     51  42  72 E8        30.05F
HURON          CLEAR     51  41  68 SE8       30.06F
MADISON        FAIR      50  46  87 S7        30.11F
MITCHELL       CLEAR     53  42  66 S7        30.08F
SIOUX FALLS    CLEAR     49  46  90 CALM      30.11F
WINNER         FAIR      59  41  51 S20       30.05F
YANKTON        CLEAR     52  43  71 CALM      30.11F
$$

MNZ071-072-080-081-089-090-097-098-270900-
SOUTHWEST MINNESOTA

CITY           SKY/WX    TMP DP  RH WIND       PRES   REMARKS
FAIRMONT       CLEAR     51  46  83 SW3       30.14S
JACKSON        CLEAR     52  43  71 CALM      30.14F
LUVERNE        CLEAR     46  43  87 CALM      30.13F
MARSHALL       CLEAR     52  43  71 SW9       30.11F
MONTEVIDEO     CLEAR     52  41  66 SW5       30.10F
PIPESTONE      CLEAR     54  39  58 SE5       30.12F
REDWOOD FALLS  CLEAR     53  41  63 SW5       30.11F
TRACY          CLEAR     54  47  75 SW8       30.12F
WINDOM         CLEAR     46  43  87 CALM      30.13F
WORTHINGTON    CLEAR     53  43  68 S6        30.14F
$$

IAZ001>003-012>014-020>022-031-032-NEZ013-014-SDZ071-270900-
NORTHWEST IOWA

CITY           SKY/WX    TMP DP  RH WIND       PRES   REMARKS
CHEROKEE       CLEAR     45  42  89 CALM      30.14F
DENISON        CLEAR     48  46  93 CALM      30.16F
ESTHERVILLE    CLEAR     48  44  86 SW5       30.13F
LE MARS        CLEAR     45  43  93 CALM      30.13F
ORANGE CITY    CLEAR     54  43  66 CALM      30.13F
SHELDON        CLEAR     48  45  87 SE5       30.12F
SIOUX CITY     CLEAR     49  45  86 SE6       30.13F
SPENCER        CLEAR     47  44  90 CALM      30.14F
STORM LAKE     CLEAR     52  41  66 SE6       30.15S
$$

ABBREVIATIONS USED IN REMARKS
   TC - TEMPERATURE IN CELSIUS
  WCI - WIND CHILL INDEX
   HX - HEAT INDEX
  VSB - VISIBILITY





USA.gov is the U.S. government's official web portal to all federal, state and local government web resources and services.